Theta_e
306 299 295 299 302 302 299 298 297 300 305 304 303 303 305 309 310 309 311 312 314 315 319 323 327 328 327 330 330 330 329 329 328 326 325 325 324 326 327 328 328 327 327 327
300 294 301 303 302 300 299 297 297 301 304 303 302 302 306 308 309 311 311 312 314 314 314 318 323 326 326 326 328 329 330 330 329 328 327 326 325 326 328 329 328 328 328 329
296 299 303 301 299 297 297 295 296 295 300 302 300 298 301 305 308 309 309 311 312 315 314 315 318 322 326 325 326 327 329 330 330 329 329 328 329 328 327 328 328 329 329 329
298 302 300 299 297 299 293 301 299 297 294 291 300 289 298 301 302 305 307 309 309 312 315 316 316 318 323 326 329 328 329 330 330 331 329 328 326 324 327 329 330 330 330 330
295 298 297 295 297 301 297 302 298 298 295 294 293 290 295 301 300 302 306 309 310 312 314 315 316 317 320 325 328 330 329 329 330 330 330 329 327 329 330 330 331 331 331 331
297 302 300 299 301 301 302 298 298 297 294 285 293 291 293 297 300 303 306 308 311 313 314 315 319 318 317 324 327 329 327 327 329 329 330 329 328 329 329 329 329 330 330 330
294 294 300 302 297 300 299 294 285 284 284 284 295 291 293 301 303 304 305 308 311 312 313 314 315 317 317 317 323 327 327 326 328 329 329 330 330 330 329 330 330 328 329 328
286 284 293 299 298 295 294 292 287 283 283 287 292 287 294 303 305 306 306 307 309 309 310 311 314 316 318 317 317 323 325 325 326 328 328 330 331 330 330 330 330 329 329 329
287 286 297 298 299 299 293 289 296 287 282 284 289 294 300 302 302 304 305 306 308 310 309 309 309 312 313 315 314 319 322 324 326 327 327 328 329 330 329 330 330 329 330 329
291 285 293 295 299 298 295 298 287 287 282 281 287 290 293 298 300 304 304 304 306 307 308 309 310 309 309 311 313 316 321 323 325 326 327 326 328 329 329 329 328 328 328 328
293 290 288 294 292 291 291 290 290 289 287 284 283 289 299 300 301 302 304 306 307 308 305 306 308 308 306 306 308 311 315 319 322 324 325 325 326 326 327 327 327 327 327 327
294 290 285 288 294 297 296 292 292 285 284 286 285 289 297 300 302 301 301 302 303 304 304 303 305 304 299 302 304 307 312 315 320 322 323 323 324 324 324 325 325 326 326 326
293 287 281 282 287 292 291 293 294 293 291 285 283 287 296 297 299 299 297 298 298 298 300 300 301 299 299 300 301 302 308 314 317 319 320 320 321 321 322 323 324 324 324 324
296 288 285 281 285 289 286 289 293 291 285 287 287 290 295 298 299 301 300 298 298 299 298 299 298 298 298 299 300 301 302 309 313 316 317 316 317 317 318 318 317 317 318 315
293 284 287 287 288 288 287 287 288 288 290 286 289 290 295 297 300 302 305 305 298 299 299 299 299 298 299 299 299 301 302 305 309 312 314 312 311 309 306 306 306 306 306 306
290 284 285 282 288 287 285 288 288 288 289 289 290 289 296 298 299 302 303 304 304 304 302 300 299 298 298 298 299 299 300 301 304 305 305 304 304 302 302 302 301 300 301 304
286 285 282 280 284 284 280 285 287 288 290 289 286 293 297 297 298 300 301 303 302 303 303 301 301 300 299 299 299 300 300 301 302 302 300 300 300 297 297 296 297 297 298 298
285 285 284 279 279 274 286 291 291 289 290 292 292 294 296 297 300 303 305 304 304 305 305 302 301 301 301 301 300 301 302 301 300 298 297 297 297 295 295 296 296 295 296 296
291 286 282 279 278 282 284 287 287 288 289 294 293 294 296 298 299 299 303 305 305 306 306 303 303 301 300 300 300 300 300 299 298 296 295 295 296 294 294 293 295 295 293 291
288 288 284 279 275 274 283 291 295 294 284 294 295 294 295 296 290 295 302 303 304 304 304 303 299 297 298 299 300 298 298 296 296 296 295 295 295 293 293 293 291 290 290 288
281 282 279 278 278 281 287 289 293 284 286 294 296 294 295 292 295 300 303 303 302 303 302 296 296 296 297 296 297 297 297 297 297 295 294 293 293 292 292 291 290 288 288 287
281 280 279 280 277 274 289 289 288 292 294 294 294 295 295 295 295 296 298 300 302 301 300 295 294 293 293 294 296 296 296 296 293 293 292 291 289 289 289 288 288 287 287 287
280 285 282 283 282 289 290 291 296 294 293 294 294 295 294 294 294 295 295 295 295 295 295 292 292 291 291 292 295 293 294 292 291 290 289 288 288 288 288 288 287 288 288 288
286 288 285 285 289 290 292 293 293 294 294 295 294 293 292 292 293 291 291 292 291 291 291 290 289 290 289 289 290 294 291 292 290 289 288 287 287 287 287 289 289 288 289 289
287 288 286 285 288 290 292 293 294 294 293 292 292 292 291 291 290 289 289 289 290 289 288 287 288 290 290 289 290 289 290 290 289 289 288 288 288 288 287 289 290 290 290 290
286 282 284 283 282 283 288 292 281 282 284 286 287 287 288 289 289 289 288 288 287 286 288 286 287 288 289 289 289 288 289 291 290 289 289 289 289 288 288 287 286 288 289 289
Wind_Speed
11 9 17 28 27 19 16 14 18 15 11 10 19 20 22 18 16 15 14 13 18 17 19 15 17 18 17 17 18 19 17 17 13 12 11 11 11 10 10 10 13 13 12 12
6 16 32 19 16 18 13 16 15 10 12 11 17 19 21 20 20 19 21 20 19 19 18 16 16 17 19 19 19 19 19 19 16 12 11 10 11 11 11 10 12 14 14 13
20 15 20 18 15 18 19 18 17 12 4 12 12 22 24 24 22 23 23 23 23 23 19 18 17 18 19 20 20 20 21 22 19 17 11 10 7 7 9 11 11 13 15 14
17 21 10 22 19 23 19 25 23 13 6 13 9 16 20 16 17 24 25 25 26 26 24 22 19 19 19 19 19 22 21 22 19 20 15 17 13 13 12 11 11 11 16 16
16 16 19 15 28 20 16 17 19 25 18 12 18 12 16 20 26 25 23 23 25 24 23 25 23 19 20 18 19 20 22 21 19 19 19 14 16 12 11 11 13 14 13 15
21 2 11 28 19 12 5 5 13 14 14 13 26 19 17 22 24 19 20 23 22 22 23 23 23 20 19 17 17 17 20 20 20 20 21 21 21 18 12 13 11 10 10 10
14 12 9 7 15 9 11 7 4 10 9 12 18 17 23 14 21 23 20 20 20 18 19 21 23 20 19 18 18 17 20 21 21 21 22 22 22 20 19 16 12 12 10 9
15 15 15 16 16 9 23 9 4 6 7 17 5 11 13 19 24 27 20 17 15 12 12 17 19 17 19 17 18 20 19 21 21 22 23 20 21 13 13 16 12 11 11 11
22 19 11 17 9 11 6 15 15 7 0 2 4 17 12 12 12 17 22 19 19 19 16 14 15 16 17 16 17 19 19 19 20 21 19 20 19 18 16 18 15 11 12 10
8 13 10 12 14 16 13 7 4 6 6 11 14 18 12 9 18 18 17 16 16 12 15 13 16 14 13 15 16 18 20 20 19 19 17 16 17 17 16 15 16 14 12 12
10 9 7 11 14 17 12 9 5 0 4 3 5 10 4 16 16 18 18 14 14 13 9 10 14 11 10 10 13 15 15 15 15 15 15 15 14 15 14 14 13 13 12 12
12 4 7 18 0 11 17 19 20 5 5 3 2 10 2 4 6 8 11 9 7 9 10 8 10 9 7 9 11 13 13 14 14 15 14 14 14 14 14 15 14 13 12 11
15 7 6 4 5 6 13 18 16 15 6 9 5 14 6 6 10 12 11 11 9 7 10 7 8 7 9 8 9 10 11 11 10 12 13 13 13 13 14 13 12 11 11 10
17 5 13 13 14 5 10 11 12 16 9 14 13 35 24 21 24 21 19 11 10 11 9 9 8 7 6 6 7 8 8 8 11 12 13 12 12 10 9 7 7 6 6 6
13 11 12 18 10 4 4 2 14 18 19 15 19 29 29 19 19 20 19 19 14 16 9 9 10 8 8 8 7 6 8 10 8 10 11 10 8 8 9 8 7 6 6 6
1 5 5 3 8 8 9 12 12 13 15 16 25 30 36 23 21 20 19 17 21 19 15 11 7 10 9 9 9 5 5 6 9 9 7 9 10 8 8 8 8 8 7 8
6 6 6 5 5 6 6 18 21 20 19 19 21 29 35 26 20 22 21 22 25 18 14 13 12 11 11 12 8 10 8 8 10 10 11 11 10 10 8 7 8 8 8 7
9 4 2 4 4 6 4 1 10 12 16 19 23 28 36 37 18 15 19 25 24 20 17 14 12 11 12 8 8 7 8 9 8 10 10 10 11 12 12 11 10 8 7 7
7 5 4 4 5 7 12 8 10 8 7 3 16 26 34 33 18 26 24 18 21 23 16 15 14 11 8 12 11 10 9 8 9 10 11 11 12 12 11 11 11 8 8 7
6 3 3 4 5 8 3 6 7 6 6 6 15 19 18 17 18 25 13 21 23 24 20 16 10 6 9 11 12 13 12 11 11 11 11 11 11 12 12 12 11 7 8 8
6 4 8 4 6 8 9 2 2 5 2 4 6 11 18 15 15 23 19 22 12 13 11 5 9 11 13 11 13 14 13 16 12 10 10 10 10 12 12 10 8 9 10 10
10 9 7 6 7 10 6 1 7 3 4 4 7 1 8 19 19 17 20 15 10 13 11 7 7 8 8 13 14 13 15 10 11 11 10 9 9 7 8 11 9 10 11 11
7 7 7 10 6 1 4 0 3 2 8 7 5 5 5 13 17 19 15 17 14 12 12 5 7 7 6 8 13 13 10 12 12 13 12 10 9 9 9 11 11 9 9 9
5 5 2 2 5 12 9 5 8 6 8 6 6 8 6 9 12 19 14 14 11 8 11 7 5 9 10 10 9 10 13 14 16 15 14 13 12 10 8 7 8 8 8 8
1 10 7 4 9 9 11 6 7 10 9 12 10 3 9 8 11 10 16 15 14 12 11 5 7 10 12 12 12 8 15 17 16 14 13 13 10 12 10 7 7 8 6 7
1 5 2 2 10 10 10 11 21 18 19 19 18 21 18 12 15 13 14 11 11 14 14 9 9 8 8 9 10 12 15 17 18 15 13 13 12 10 9 9 7 11 10 12
Wind_Direction
171 192 202 212 213 238 259 246 243 235 242 232 242 244 251 250 239 244 244 231 243 237 239 215 212 211 210 213 213 210 208 209 201 203 204 209 211 211 213 220 220 222 217 212
179 213 218 222 221 232 245 243 241 254 239 234 259 255 261 252 248 248 254 249 242 243 236 228 214 208 207 209 212 213 211 208 205 204 204 208 209 219 220 215 216 220 221 219
209 212 216 213 210 217 227 237 232 244 233 244 273 267 260 258 250 250 249 250 254 244 238 228 217 211 209 211 207 210 211 210 206 207 204 208 213 213 210 219 216 214 217 218
215 224 189 208 225 214 230 219 235 236 245 253 214 278 262 263 259 243 245 238 239 239 234 238 226 217 212 213 207 209 213 214 210 202 203 204 205 208 217 218 216 216 213 216
207 207 204 223 220 202 242 227 226 234 237 263 252 265 266 253 258 247 244 239 241 236 232 230 229 227 218 210 207 205 207 211 208 203 204 202 211 219 221 217 218 214 214 219
218 143 207 228 218 213 253 239 229 231 233 230 238 221 250 244 253 259 252 242 240 238 234 234 233 225 226 215 210 209 203 206 204 203 204 206 212 216 211 214 209 212 214 214
191 202 176 165 197 202 203 189 221 203 204 229 227 228 239 264 243 252 254 253 248 242 237 233 232 225 223 213 207 204 205 206 203 204 205 210 215 215 216 213 210 211 212 212
197 197 180 199 206 184 221 218 212 240 182 230 129 233 238 243 243 259 251 255 261 255 241 243 236 238 235 221 215 209 207 215 204 203 209 211 215 218 219 219 214 219 216 217
195 219 182 193 187 186 165 215 230 291 30 309 212 257 276 235 243 248 253 256 254 255 244 230 228 230 233 223 217 215 215 214 213 208 204 210 211 211 212 218 217 218 221 221
198 212 209 182 198 224 216 167 162 189 248 242 212 249 247 213 231 239 247 246 250 251 246 241 242 229 226 225 223 214 212 213 213 210 206 207 210 209 212 214 215 214 216 217
182 216 154 155 200 190 186 209 198 288 199 259 263 239 252 221 214 236 247 256 266 266 255 252 257 241 227 230 227 221 214 213 215 207 206 203 205 211 213 217 215 213 210 210
185 183 173 205 160 241 204 215 210 230 207 248 330 266 106 307 321 288 283 272 266 275 277 261 257 234 203 220 228 219 207 206 206 202 199 200 197 201 206 210 212 209 209 204
175 187 150 186 238 253 218 217 213 225 250 235 271 269 52 36 348 320 305 310 310 300 297 295 280 236 227 199 206 208 211 202 192 190 186 190 192 196 205 208 203 198 201 200
163 172 217 216 219 221 202 203 215 226 239 254 234 270 259 275 292 299 303 304 302 306 307 294 276 257 250 267 225 186 199 198 184 182 185 183 183 181 183 173 166 165 163 142
179 205 209 234 265 279 263 204 220 225 237 239 256 265 266 261 269 269 274 278 287 293 290 282 283 266 235 225 239 231 178 177 179 188 179 175 151 135 133 131 124 116 114 117
60 143 158 255 230 236 256 248 231 235 241 249 256 267 275 274 278 262 261 269 272 275 279 262 247 252 231 226 219 209 224 176 154 153 145 135 138 128 131 128 128 123 120 123
139 145 164 151 102 128 234 230 232 241 246 238 251 252 271 273 257 257 263 257 258 261 267 273 258 243 228 220 207 202 183 174 160 143 141 144 138 134 128 126 126 127 131 131
136 107 103 135 190 229 236 55 219 222 250 243 249 258 265 269 272 274 254 254 264 265 262 252 245 239 227 203 181 176 179 175 157 143 143 146 145 143 145 143 140 133 135 136
159 117 131 164 205 318 278 239 217 186 272 75 263 252 258 277 305 262 252 271 269 272 266 257 251 235 197 198 181 164 161 168 153 162 157 157 154 147 147 143 143 135 130 125
154 150 143 145 189 230 340 191 132 125 260 67 12 10 324 317 278 274 290 257 250 243 248 249 235 200 197 188 165 161 170 175 173 172 168 158 155 153 153 152 146 136 136 130
154 156 189 178 235 272 258 196 63 191 337 4 343 359 328 312 303 315 298 279 271 262 265 238 203 207 208 170 167 177 175 190 172 157 157 154 150 154 152 140 135 134 134 127
170 166 178 187 230 256 191 129 194 109 244 234 283 256 341 306 311 305 308 305 291 279 272 215 218 219 190 171 171 178 189 163 144 146 150 147 141 138 143 140 138 137 135 132
189 193 179 199 209 201 203 71 278 271 283 295 276 277 304 297 307 308 305 310 306 309 283 260 219 203 198 184 178 182 172 148 146 148 149 144 140 141 146 147 145 141 146 143
227 180 214 140 240 254 276 225 235 251 278 309 296 298 283 292 300 297 295 305 298 301 302 275 224 222 200 185 194 185 159 156 154 157 154 145 146 140 145 150 150 150 159 156
134 148 198 271 280 287 276 288 322 343 339 329 351 313 317 321 297 285 303 315 315 308 303 274 232 224 221 187 184 166 157 157 159 157 155 150 153 151 149 164 159 160 166 165
33 359 212 230 23 321 295 23 19 0 345 337 342 337 331 321 313 310 307 315 307 323 315 296 262 249 230 193 182 163 165 167 159 158 161 160 157 151 150 146 122 81 118 115